Location: ??
(34.7707°N, 135.6540°E)
Time: 18:51:40
(UTC+00:00)

Cosmos 494 Rocket - Pass Details

Date: 09 April 2020
Orbit: 742 x 771 km, 74.1° (Epoch: 06 June)

Event Time Altitude Azimuth Distance (km) Brightness Sun altitude
Rises 18:00:24 0° 347° (NNW) 3,247 7.5 -29.5°
Reaches altitude 10° 18:02:50 10° 351° (N) 2,318 6.8 -29.1°
Maximum altitude 18:08:02 60° 71° (ENE) 883 4.4 -28.2°
Enters shadow 18:11:53 18° 147° (SSE) 1,818 5.9 -27.6°
